Погода в Плявинясе

Латвия     56°36′48″N   25°42′35″E
темп.,
°C
ветер,
м/с
пор.,
м/с
влажн.,
%
обл.,
%
осадки,
мм/ч
давл.,
гПа
погр.,
м
31 июля, сб
сб3100:00+18юз71457100 0.0 10011334
03:00+16юз6147051 0.0 10011085
06:00+16юз5127956 0.0 1001914
09:00+19юз5107595 0.1 1002997
12:00+21зюз6106697 0.5 10041525
15:00+22зюз5105890 0.7 10051549
18:00+23юз3755100 0.0 10041357
21:00+18ю258073 0.0 100492
1 августа, вс
вс100:00+16ююз3997100 0.9 1005342
03:00+16ююз3119823 1.7 1004457
06:00+14ююз269931 0.1 1004180
09:00+18юз412939 0.6 1004596
12:00+22юз6105791 0.1 10051642
15:00+22юз6961100 0.4 10061486
18:00+22юз4760100 0.1 10061185
21:00+17юз31087100 0.3 1007352
2 августа, пн
пн200:00+15юз269585 0.1 1007143
03:00+15юз1194100 0.1 100614
06:00+15ююв1193100 0.0 100536
09:00+15юз1293100 0.1 100489
12:00+15ююз2397100 0.8 1004159
15:00+17ююз2494100 2.3 1003157
18:00+19з3784100 2.3 1003350
21:00+15зюз379015 3.1 1003160
3 августа, вт
вт300:00+12зюз289397 0.0 1005156
03:00+11юз29964 0.0 1006199
06:00+11юз311976 0.0 1006306
09:00+15зюз358799 0.0 1007532
12:00+18зюз356443 0.1 10081213
15:00+20зсз365626 0.5 10081315
18:00+19зсз465577 0.1 10101166
21:00+16сз276716 0.1 1011216
4 августа, ср
ср400:00+11ссз22835 0.0 101313
03:00+10з11865 0.0 101410
06:00+10вюв0084100 0.0 101510
09:00+16вюв12585 0.0 1015332
12:00+21юв234364 0.0 10151341
15:00+23юв2340100 0.0 10142000
18:00+17ююв2674100 0.1 1013148
21:00+16ююв1187100 0.9 101313